User: anonymous   Login
Location: Caltech
(34.1382°N, 118.1253°W)
Time: 00:35:02
(UTC-08:00)
Language:

SEDSat Delta rocket - Orbit

View from above orbital plane
View from above orbital plane
View from above satellite
View from above satellite

Ground track
Ground track

The orbit data is extracted from the following two-line orbital elements,

1 25510U 98061C   14325.59339450  .00001078  00000-0  18331-3 0    75
2 25510 031.4335 120.5263 0332202 042.1654 001.4660 14.35999410842227
Epoch (UTC): 21 November 2014 14:14:29
Eccentricity: 0.0332202
inclination: 31.4335°
perigee height: 534 km
apogee height: 1009 km
right ascension of ascending node: 120.5263°
argument of perigee: 42.1654°
revolutions per day: 14.35999410
mean anomaly at epoch: 1.4660°
orbit number at epoch: 84222

The dashed part of the orbit path shows where the satellite is in the earth's shadow,  

DLR